Find Starlink 11477

NORAD ID: 62471 Int'l Des: 2024-254 Owner: SPXS Country: US Constellation: starlink operational
LEOCIRCULAR

实时位置

正在加载3D地球...

关于 Starlink 11477

正在加载描述...

即将过境

Passes for default location (London). Set your location on the main map for personalized predictions.

高度历史

Loading altitude history...

两行轨道根数

1 62471U 24254K 26122.10016640 .00130487 00000-0 10037-2 0 9994
2 62471 43.0005 260.8294 0000906 284.3300 75.7467 15.70859460 77791
Epoch: May 2, 2026 • Age: 14 hours

当前状态

高度 355.0 km
速度 7.70 km/s
星下点 11.69°N, 166.37°E
发射日期 Dec 31, 2024
运行时间 1.3 years
类型 internet

技术详情

分类 Payload
质量 960.00 kg
干质量 910.00 kg
总质量 960.00 kg
长度 0.30 m
直径 4.10 m
跨度 29.00 m
形状 Box + pan
制造商 SPXS
平台类型 Starlink V2MD
阶段状态 In Orbit
所有者/国家 SPXS/US

Most Searched